Location: Camp Crooked Creek
(37.9149°N, 85.6607°W)
Time: 22:51:59
(UTC-04:00)

Daily predictions for brighter satellites

Satellite Brightness Start Highest point End
(mag) Time Altitude Azimuth Time Altitude Azimuth Time Altitude Azimuth
ATLAS 5 CENTAUR R/B 2.5 21:21:35 10° NNW 21:27:41 81° ENE 21:34:10 10° SE
Cosmos 2084 4.0 21:24:25 10° S 21:27:47 28° ESE 21:31:06 10° ENE
ERS-1 Rocket 3.5 21:24:10 10° SE 21:28:52 42° ENE 21:33:37 10° N
Cosmos 407 Rocket 4.2 21:24:46 10° N 21:29:43 39° ENE 21:34:41 10° SE
Cosmos 1733 Rocket 3.1 21:26:33 10° S 21:30:55 64° E 21:35:16 10° NNE
deb Chang Zheng 4 4.3 21:34:12 10° NNE 21:38:12 33° E 21:42:12 10° SSE
Cosmos 1452 Rocket 4.0 21:33:45 10° S 21:38:37 40° ESE 21:43:31 10° NNE
Cosmos 2154 Rocket 4.4 21:36:03 10° SSE 21:41:49 42° E 21:47:35 10° NNE
COSMOS 2406 3.3 21:36:22 10° NNW 21:42:09 89° WSW 21:47:51 10° SSE
Cosmos 1190 Rocket 4.0 21:39:17 10° NNW 21:44:28 67° ENE 21:49:37 10° SSE
Cosmos 1408 3.8 21:43:50 11° SE 21:46:44 24° E 21:49:44 10° NE
Cosmos 2184 Rocket 4.1 21:42:05 10° S 21:48:14 84° W 21:54:27 10° N
Cosmos 2278 Rocket 2.6 21:43:32 10° S 21:48:47 40° ESE 21:54:03 10° NE
YAOGAN 11 4.2 21:44:30 10° SSE 21:49:01 83° ENE 21:53:36 10° N
ALOS 3.4 21:45:00 10° S 21:49:26 44° W 21:53:56 10° NNW
Cosmos 1825 3.1 21:47:48 10° SSE 21:51:03 29° E 21:54:24 10° NNE
Cosmos 1844 Rocket 2.7 21:46:07 10° SSW 21:51:46 88° WNW 21:57:27 10° NNE
SJ-11-01 4.3 21:47:07 10° SSE 21:51:52 74° ENE 21:56:36 10° N
Cosmos 1844 3.7 21:47:52 10° SSW 21:53:35 71° ESE 21:59:22 10° NNE
H-2A R/B 2.3 21:55:26 14° SE 21:59:02 50° ENE 22:03:08 10° N
Cosmos 1184 Rocket 3.8 21:59:21 18° SE 22:01:03 29° E 22:04:00 10° NNE
Meteor 2-10 Rocket 4.5 21:58:05 10° NNW 22:03:43 55° W 22:09:11 10° S
CENTAUR R/B 3.8 21:56:10 10° NW 22:03:53 54° WSW 22:11:53 10° S
Cosmos 2082 Rocket 3.8 22:05:47 10° N 22:09:54 20° NE 22:13:01 13° E
EO 1 Delta rocket 4.1 22:05:56 10° NNE 22:11:57 71° E 22:16:50 10° S
ISS -3.1 22:11:21 10° WSW 22:14:35 71° NW 22:17:50 10° NE
Terra 4.0 22:14:15 10° ENE 22:15:01 10° ENE 22:15:46 10° NE
Cosmos 676 Rocket 4.0 22:09:54 10° NNW 22:15:07 76° ENE 22:18:53 19° SSE
Centaur D-1A AC-32 3.8 22:13:35 10° SW 22:16:18 15° S 22:16:51 14° S
Cosmos 1238 Rocket 2.8 22:13:30 10° N 22:16:46 49° E 22:18:32 26° SE
Cosmos 1174 3.0 22:14:16 10° NNW 22:17:25 72° ENE 22:18:30 35° SE
Cosmos 1862 3.3 22:14:50 10° S 22:18:53 84° E 22:23:00 10° N
SPOT 5 3.2 22:15:48 19° SSE 22:19:34 63° ENE 22:24:52 10° N
Cosmos 1954 Rocket 4.1 22:14:39 10° NNW 22:19:50 64° ENE 22:23:05 23° SE
Cosmos 2297 4.1 22:19:07 12° S 22:23:51 40° ESE 22:29:09 10° NE
COS B Rocket 3.1 22:22:48 10° N 22:26:51 87° W 22:29:13 21° S
Okean 2 Rocket 3.1 22:25:23 22° SSE 22:28:07 57° E 22:32:27 10° NNE
OAO 3 Rocket 3.9 22:24:39 10° SW 22:29:06 34° SSE 22:30:20 29° SE
Okean 3 3.4 22:26:04 10° N 22:30:21 70° E 22:32:24 29° SSE
Cosmos 1606 3.3 22:31:13 10° NNW 22:35:05 55° W 22:37:45 18° SSW
Cosmos 2218 Rocket 4.4 22:33:57 25° SSE 22:37:20 45° E 22:43:22 10° NNE
Nadezhda 3 Rocket 4.2 22:31:26 10° N 22:37:48 78° W 22:43:13 15° S
Meteor 1-27 Rocket 4.0 22:33:36 10° NNW 22:39:05 64° W 22:43:36 15° S
Cosmos 1782 Rocket 3.6 22:38:01 15° S 22:41:42 80° W 22:46:11 10° N
Cosmos 1023 Rocket 4.4 22:38:10 10° NNW 22:43:17 70° ENE 22:45:23 35° SE
Meteor 2-13 Rocket 4.4 22:39:53 14° S 22:45:12 81° E 22:51:23 10° N
BREEZE-M DEB (TANK) 3.5 22:34:48 10° WNW 22:46:29 64° NNE 22:48:20 32° E
MetOp-B 4.1 22:46:20 27° S 22:49:20 84° WSW 22:54:43 10° NNW
Envisat 3.9 22:46:06 14° SSW 22:50:09 45° W 22:55:02 10° NNW
GPS 2-05 Rocket1 3.0 22:47:08 10° WSW 22:50:39 59° S 22:50:39 59° S
COSMOS 2487 2.8 22:47:50 10° NNW 22:51:26 62° WSW 22:52:14 46° SSW
Cosmos 1959 Rocket 4.5 22:50:05 30° SSE 22:53:06 60° E 22:59:06 10° NNE
APEX 3.3 22:51:35 24° SSW 22:53:50 87° WNW 22:58:43 10° NNE
DNEPR-1 R/B 3.7 22:52:06 10° NNW 22:57:23 72° ENE 22:58:32 49° SE
Cosmos 1975 Rocket 3.3 22:54:28 10° NNW 22:58:45 64° W 23:00:24 35° SSW
Cosmos 1420 Rocket 4.4 22:56:56 10° SSW 23:02:08 65° WNW 23:07:21 10° NNE
Atlas Centaur 2 3.4 23:00:05 10° SW 23:00:49 13° SW 23:00:49 13° SW
ARGOS 3.0 23:05:13 43° SSE 23:07:03 85° ENE 23:12:26 10° NNW
Cosmos 614 Rocket 3.8 23:02:24 10° NNW 23:07:30 75° ENE 23:08:37 54° SE
OAO 1 Rocket 4.5 23:02:35 10° WSW 23:07:46 55° S 23:08:19 53° SE
Cosmos 1536 Rocket 3.8 23:07:16 10° N 23:11:39 51° E 23:11:40 51° E
Meteor 1-20 Rocket 4.4 23:11:44 45° ESE 23:12:19 47° E 23:17:37 10° NNE
Elektron 3 4.2 23:10:02 10° NW 23:13:05 75° SW 23:13:13 74° SSW
CZ-4 R/B 3.6 23:09:02 10° NNE 23:13:44 86° ESE 23:14:48 54° S
H-2A R/B 2.4 23:13:15 45° ESE 23:14:12 51° ENE 23:19:21 10° N
SL-8 Rocket 4.1 23:10:10 22° SSW 23:14:26 75° W 23:20:42 10° N
Timation 2 Rocket 3.9 23:11:27 10° NNW 23:17:26 75° WSW 23:19:21 45° S
Cosmos 1140 Rocket 3.9 23:12:30 10° NNW 23:17:32 55° WSW 23:19:08 39° SSW
YAOGAN 6 3.9 23:18:38 30° WSW 23:19:03 31° W 23:22:14 10° NNW
USA 245 3.9 23:21:42 42° W 23:21:42 42° W 23:25:15 10° NNW
Cosmos 1242 Rocket 3.9 23:21:02 10° NNW 23:24:23 34° W 23:24:43 33° WSW
Meteor 1-25 Rocket 4.2 23:23:30 53° SSE 23:24:53 74° E 23:30:43 10° NNE
USA 234 3.2 23:19:32 10° NE 23:25:59 60° SE 23:30:49 19° SSW
CZ-4B R/B 4.2 23:23:42 10° N 23:28:28 49° WNW 23:31:08 24° SW
SPOT 1/Viking Rocket 4.2 23:28:03 37° SSW 23:29:40 50° W 23:34:45 10° NNW
Cosmos 2278 Rocket 4.2 23:28:11 10° WSW 23:32:56 27° WNW 23:37:45 10° N
Cosmos 1833 Rocket 2.6 23:27:23 10° NNW 23:33:00 72° ENE 23:33:42 64° ESE
Cosmos 2151 Rocket 4.0 23:33:24 51° WSW 23:34:08 59° W 23:38:37 10° N
Landsat 7 3.7 23:36:06 79° SW 23:36:19 82° WSW 23:41:06 10° NNW
Meteor 1-18 Rocket 4.3 23:36:43 10° N 23:42:39 81° W 23:43:43 61° S
IGS 5A 4.0 23:47:10 55° N 23:47:10 55° N 23:50:29 10° N
ISS 0.0 23:49:47 10° NW 23:51:30 13° NNW 23:53:14 10° N
CZ-3C R/B 4.2 23:44:15 10° WSW 23:50:58 17° SSW 23:50:58 17° SSW
Terra 1.9 23:52:21 76° NW 23:52:21 76° NW 23:56:50 10° NNW
Cosmos 1812 3.9 23:48:51 10° N 23:51:28 41° NNW 23:51:28 41° NNW
Cosmos 1300 Rocket 4.1 23:55:01 54° N 23:55:01 54° N 23:58:30 10° N
Cosmos 2082 Rocket 2.4 23:48:48 10° NNW 23:54:23 59° WSW 23:54:52 57° SW
